Showing default

SECOR 3, 1208

Orbit data source: Space-Track

SECOR 3, 1208 is an American payload satellite in LEO that was launched on Tue, 09 Mar 1965 UTC via a THOR SLV-2 AGENA D launch vehicle from the Air Force Western Test Range (AFWTR). Payload-class satellites include a variety of spacecraft equipped with specific instruments for various scientific and technological missions. These include communications satellites like Starlink; space stations such as the ISS; scientific satellites like the Hubble; Earth observation satellites from companies like Planet Labs, Umbra, and HawkEye 360; GPS; miniature CubeSats for education and research; and military/defense satellites.

Loading next visibility...
Identifier
1208, 1965-016E
Orbit
LEO
Country
Flag of USUS
Related business
Manufacturer
ITT
Mission
Spacecraft
Bus & Motor
SECOR, Unknown motor
Mass
18 kg wet, 18 kg dry
Launch date (UTC)
1965-03-09 (61 years ago)
Launch vehicle
THOR SLV-2 AGENA D
Launch site
Air Force Western Test Range (AFWTR)
Object type
Payload
Rocket body
Debris
Shape & HBR
Unknown
Radar Cross Section
Medium (>0.1 m² and <1 m²)

Expand to show TLE details & history
Last TLE update: 17 hours ago

TLE from 17 hours ago
0 SECOR 3
1 01208U 65016E   26127.82505794  .00000039  00000-0  66510-4 0  9991
2 01208  70.0794 270.0669 0018671 144.7925 331.9849 13.96074485113532
Epoch: 2026-05-07T19:48Z
TLE epoch observation values (Epoch: 2026-05-07T19:48:05.006Z)
Latitude
57.26117°
Longitude
-106.7239°
Altitude
904.421 km
Speed
7.412 km/s
True Right ascension
03h 43m 51s
True Declination
57° 06' 28"
Sunlit
Object was in daylight at epoch
Visualization orbit readout
Latitude
Unknown
Longitude
Unknown
Altitude
Unknown
Speed
Unknown
Apparent Right ascension
Unknown
Apparent Declination
Unknown
Sunlit
N/A
Visualization observer readout
Local Sidereal Time
20:42:11
Azimuth
Unknown
Elevation
Unknown
Doppler factor
Unknown
Orbital elements
Apogee altitude
919.055 km
Perigee altitude
891.856 km
Semi-major axis
7,283.592 km
Eccentricity
0.00187
Inclination
70.0794°
RAAN
270.0669°
Arg. of periapsis
144.7925°
True anomaly
331.8842°
Mean anomaly
331.9849°
Eccentric anomaly
331.93457°
Mean motion
3.4916 °/min
Orbital period
103.1 mins
BSTAR
0.00006651
Loading maneuver chart data...
Computing Atmospheric mass density...
Loading historical data...
Loading historical data...
Loading historical data...
Loading historical data...
Loading historical data...
Loading historical data...
Loading historical data...

Documentation

Showing up to 5 results
|